Regional Weather Roundup
Issued by NWS Albany, NY

Home | Current Version | Previous Version | Graphics & Text | Print | Product List | Glossary Off
Versions: 1 2 3 4 5 6 7 8 9 10 11 12 13 14 15 16 17 18 19 20 21 22 23 24 25 26 27 28

000
ASUS41 KALY 212110
RWRALY

NEW YORK STATE HOURLY WEATHER ROUNDUP
NATIONAL WEATHER SERVICE ALBANY NY
500 PM EDT SAT APR 21 2018

NOTE: "FAIR" INDICATES FEW OR NO CLOUDS BELOW 12,000 FEET WITH NO
SIGNIFICANT WEATHER AND/OR NO OBSTRUCTIONS TO VISIBILITY.

NYZ032-033-038>043-046>054-057>066-NYZ062>081-082-084-212200-
EAST


CITY           SKY/WX    TMP DP  RH WIND       PRES   REMARKS
ALBANY         FAIR      58  15  18 NW16G25   30.25F
GLENS FALLS    FAIR      56  17  21 NW12G22   30.24S
POUGHKEEPSIE   FAIR      60  17  18 N13G24    30.24F
NEWBURGH       SUNNY     59  21  23 NW14G21   30.26F
MONTGOMERY     FAIR      60  21  22 N13G24    30.24F
WHITE PLAINS   FAIR      58  19  22 NW10      30.24F
ISLIP          FAIR      60  22  23 W14       30.25F
NEW YORK CITY  PTSUNNY   62  21  20 NW7       30.26S
CENTRAL PARK   FAIR      61  20  20 VRB7      30.28F
$$

NYZ005>009-017-018-044>046-055-056-212200-
CENTRAL


CITY           SKY/WX    TMP DP  RH WIND       PRES   REMARKS
FULTON         FAIR      51  19  28 W13       30.36F
SYRACUSE       FAIR      53  18  25 W16G22    30.35F
ROME           FAIR      53  17  24 W14G24    30.33F
ELMIRA         FAIR      58  23  26 N10       30.32F
BINGHAMTON     FAIR      51  18  27 N12G25    30.31S
MONTICELLO     FAIR      53  17  24 NW13G22   30.28
$$

NYZ026>034-041>043-087-212200-
NORTH


CITY           SKY/WX    TMP DP  RH WIND       PRES   REMARKS
WATERTOWN      FAIR      47  30  51 W12       30.35F
FORT DRUM      NOT AVBL
OGDENSBURG     FAIR      57  19  23 NW9       30.31S
MASSENA        FAIR      53  19  26 W12G23    30.30F
SARANAC LAKE   FAIR      46  14  27 W9G18     30.24S
PLATTSBURGH    FAIR      54  16  22 NW10G21   30.25F
$$

NYZ001>004-010>016-019>021-085-212200-
WEST


CITY           SKY/WX    TMP DP  RH WIND       PRES   REMARKS
NIAGARA FALLS  FAIR      57  21  24 NW10      30.39F
BUFFALO        PTSUNNY   49  23  36 SW13      30.40F
DUNKIRK        FAIR      48  23  37 W5        30.41F
JAMESTOWN      FAIR      48  21  34 MISG      30.38S
WELLSVILLE     FAIR      50  22  33 NW8       30.35F
ROCHESTER      FAIR      56  15  20 N15       30.37F
PENN YAN       FAIR      55  21  26 NW10G20   30.35F
$$

             KEY
       WCI = WIND CHILL INDEX
       VSB = VISIBILITY
       HX  = HEAT INDEX
$$




USA.gov is the U.S. government's official web portal to all federal, state and local government web resources and services.